Weather in Kruševac

Serbia     43°35′08″N   21°19′42″E
temp.,
°C
wind,
m/s
gust,
m/s
humid.,
%
clouds,
%
prec.,
mm/h
press.,
hPa
HPBL,
m
15 april, thu
thu1523:000ssw019259 0.0 102352
02:00+2ssw238599 0.0 1022132
05:00+2sw1183100 0.0 102221
08:00+4nnw25728 0.0 1023529
11:00+7nnw5650100 0.1 10221847
14:00+9n5646100 0.1 10211864
17:00+8nnw4650100 0.0 10201702
20:00+5nw116484 0.0 102212
16 april, fri
fri1623:00+2sw22711 0.0 102314
02:00+1ssw22720 0.0 102316
05:000ssw227347 0.0 102311
08:00+4nne11606 0.0 1023209
11:00+8n234669 0.0 10221230
14:00+11ne23415 0.0 10211672
17:00+10ne4347100 0.0 10191303
20:00+6nne1161100 0.0 102011
17 april, sat
sat1723:00+6w1164100 0.0 102011
02:00+5wsw116799 0.0 101910
05:00+5w0168100 0.0 101912
08:00+6e1272100 0.0 1018514
11:00+4ne1296100 2.3 1017527
14:00+4nnw2297100 3.5 1016587
17:00+3wnw2398100 0.5 1015256
20:00+3w2498100 7.1 1015260
18 april, sun
sun1823:00+3w1298100 2.1 1014145
02:00+3nw1198100 7.1 101397
05:00+4nw1198100 1.1 101385
08:00+4nw1196100 1.6 1013135
11:00+4nw0095100 0.4 1014172
14:00+6ne2193100 2.7 1014309
17:00+6nne2293100 0.0 1014276
20:00+5n2397100 0.0 1015164
19 april, mon
mon1923:00+5nnw1298100 0.0 1015143
02:00+5nw1298100 0.0 1014127
05:00+5nw2398100 0.1 1013196
08:00+5nw2698100 0.6 1012495
11:00+5nw3696100 0.9 1012699
14:00+5wnw3796100 2.4 1011730
17:00+5w2696100 0.9 1011691
20:00+5w2595100 2.1 1011330